Location: Unspecified
(36.5600°N, 136.6600°E)
Time: 04:33:37
(UTC+09:00)

BlueWalker 3 - Pass Details

Date: 22 June 2024
Orbit: 480 x 491 km, 53.2° (Epoch: 24 July)

Event Time Altitude Azimuth Distance (km) Brightness Sun altitude
Rises 02:36:44 0° 317° (NW) 2,536 5.6 -19.0°
Reaches altitude 10° 02:38:57 10° 323° (NW) 1,655 4.7 -18.7°
Maximum altitude 02:42:34 49° 40° (NE) 622 2.8 -18.2°
Drops below altitude 10° 02:46:12 10° 116° (ESE) 1,651 4.7 -17.7°
Sets 02:48:25 0° 122° (ESE) 2,529 5.6 -17.4°
